[[{"header":{"parameterUnit":"m.s-1","parameterCategory":1,"la1":30.2992,"la2":30.254,"lo1":-89.0895,"lo2":-89.0443,"dy":0.0025,"dx":0.0025,"nx":19,"ny":19,"refTime":"2026-03-17T03:00:00:Z","depth":0,"parameterNumber":2,"parameterNumberName":"U-component_of_WINDS"},"data":[0,0,0,1.1476,1.1476,1.1465,1.1465,1.1447,1.1447,0,0,0,0,0,0,0,0,0,0,0,1.1478,1.1478,1.1476,1.1476,1.1465,1.1465,1.1447,1.1447,0,0,0,0,0,0,0,0,0,0,0,1.1478,1.1478,1.1478,1.1476,1.1465,1.1465,1.1447,1.1457,0,0,0,0,0,0,0,0,0,0,1.1468,1.1468,1.1478,1.1478,1.1476,1.1465,1.1465,1.1457,1.1456,1.1451,0,1.1446,0,1.1446,1.1445,1.1445,0,0,0,1.1477,1.1469,1.1468,1.1478,1.1476,1.1465,1.147,1.1457,1.1455,1.1449,1.1446,1.1446,1.1446,1.1445,1.1445,1.1415,1.1415,0,0,1.1478,1.1475,1.1469,1.1467,1.1469,1.1471,1.147,1.1456,1.1452,1.1446,1.1445,1.1446,1.1445,1.1445,1.1416,1.1415,0,0,0,1.1479,1.1475,1.1474,1.1468,1.1466,1.147,1.1469,1.1452,1.1452,1.1445,1.1446,1.1445,1.1445,1.1416,1.1416,1.1405,0,0,0,1.1479,1.1476,1.1475,1.1473,1.1466,1.1459,1.1466,1.1453,1.1452,1.1446,1.1445,1.1445,1.1416,1.1416,1.1405,1.1399,0,0,0,1.1479,1.1476,1.1474,1.1473,1.1468,1.1459,1.1458,1.1453,1.1452,1.1445,1.1445,1.1416,1.1416,1.1406,1.14,1.1391,0,0,0,1.1478,1.1463,1.1474,1.1457,1.1468,1.1453,1.1459,1.1447,1.144,1.1445,1.1416,1.1416,1.1406,1.1401,1.1392,1.1382,1.1378,0,0,1.1457,1.146,1.1451,1.146,1.1443,1.1455,1.1436,1.1431,1.1432,1.1421,1.142,1.1405,1.14,1.1391,1.1358,1.1355,0,0,0,1.1443,1.1436,1.1432,1.1426,1.1424,1.1421,1.142,1.1419,1.141,1.1426,1.14,1.1397,1.1392,1.1387,1.1384,1.138,1.1414,1.1414,1.1414,1.1408,1.1413,1.1397,1.1401,1.1395,1.1396,1.1391,1.139,1.1394,1.1388,1.1384,1.1364,1.1359,1.1357,1.1352,1.138,1.138,1.138,1.138,1.1377,1.1368,1.1377,1.1366,1.1371,1.1361,1.1362,1.1366,1.1357,1.1366,1.1362,1.1371,1.1353,1.1349,1.1379,1.1379,1.1379,1.1379,1.138,1.1354,1.135,1.1351,1.1344,1.1339,1.1343,1.1335,1.134,1.1344,1.1339,1.1336,1.1336,1.1337,1.1338,1.1338,1.1338,1.1338,1.1338,1.1338,1.1329,1.133,1.1323,1.1321,1.1319,1.1317,1.132,1.1317,1.1316,1.132,1.132,1.1326,1.1351,1.1357,1.1337,1.1337,1.1337,1.1337,1.1337,1.1294,1.1304,1.1293,1.1291,1.1291,1.1286,1.1293,1.1289,1.1288,1.1284,1.1292,1.131,1.1313,1.1315,1.132,1.1291,1.1291,1.1291,1.1291,1.1274,1.1277,1.1269,1.1266,1.1263,1.127,1.1258,1.1261,1.1265,1.1265,1.127,1.1278,1.128,1.1281,1.1284,1.1289,1.1253,1.1253,1.1253,1.1253,1.1257,1.1246,1.1251,1.1252,1.1252,1.1242,1.1238,1.1245,1.1251,1.1265,1.1267,1.1279,1.1282,1.1287,1.1291,1.13,0,0]},{"header":{"parameterUnit":"m.s-1","parameterCategory":1,"la1":30.2992,"la2":30.254,"lo1":-89.0895,"lo2":-89.0443,"dy":0.0025,"dx":0.0025,"nx":19,"ny":19,"refTime":"2026-03-17T03:00:00:Z","depth":0,"parameterNumber":3,"parameterNumberName":"V-component_of_WINDS"},"data":[0,0,0,-6.9598,-6.9605,-6.9904,-6.9905,-7.0297,-7.03,0,0,0,0,0,0,0,0,0,0,0,-6.9519,-6.9522,-6.9597,-6.9605,-6.9904,-6.9905,-7.0296,-7.03,0,0,0,0,0,0,0,0,0,0,0,-6.9517,-6.9521,-6.9525,-6.9606,-6.9904,-6.9906,-7.0295,-7.0065,0,0,0,0,0,0,0,0,0,0,-6.9772,-6.971,-6.952,-6.9525,-6.9608,-6.9904,-6.9906,-7.0054,-7.008,-7.0166,0,-7.0249,0,-7.0281,-7.0327,-7.0329,0,0,0,-6.9597,-6.9689,-6.9761,-6.9525,-6.9611,-6.9903,-6.9767,-7.0068,-7.0097,-7.02,-7.0254,-7.0268,-7.0288,-7.033,-7.0332,-7.0865,-7.0868,0,0,-6.9581,-6.9577,-6.9741,-6.978,-6.974,-6.9758,-6.9776,-7.0085,-7.0143,-7.0256,-7.0277,-7.0294,-7.0333,-7.0336,-7.0862,-7.0866,0,0,0,-6.9539,-6.9566,-6.963,-6.9765,-6.9818,-6.9766,-6.9788,-7.0129,-7.0151,-7.0282,-7.0299,-7.0335,-7.034,-7.0859,-7.0864,-7.1003,0,0,0,-6.9528,-6.9541,-6.9623,-6.9624,-6.9813,-6.9979,-6.9825,-7.0129,-7.0164,-7.0297,-7.0335,-7.0344,-7.0856,-7.0861,-7.0992,-7.1069,0,0,0,-6.9496,-6.9537,-6.9584,-6.9623,-6.9752,-6.9974,-7.0013,-7.0137,-7.0176,-7.0329,-7.0345,-7.0854,-7.086,-7.0983,-7.1053,-7.1208,0,0,0,-6.9459,-6.9703,-6.9586,-6.9864,-6.975,-7.0059,-7.0011,-7.024,-7.0389,-7.0337,-7.0856,-7.0863,-7.098,-7.1044,-7.1197,-7.1337,-7.1395,0,0,-6.9764,-6.9739,-6.9903,-6.9807,-7.0137,-7.0013,-7.0361,-7.0499,-7.0515,-7.0746,-7.0759,-7.0996,-7.1052,-7.1205,-7.1722,-7.1768,0,0,0,-6.9998,-7.0115,-7.0203,-7.0346,-7.0459,-7.0561,-7.0646,-7.0697,-7.0894,-7.0635,-7.1093,-7.1127,-7.1217,-7.1283,-7.1323,-7.1399,-7.0894,-7.0893,-7.0893,-7.0423,-7.0433,-7.0704,-7.0749,-7.0888,-7.0973,-7.1085,-7.1166,-7.1134,-7.1242,-7.1311,-7.1624,-7.1702,-7.1731,-7.1811,-7.1385,-7.1386,-7.1387,-7.1387,-7.087,-7.1037,-7.099,-7.1235,-7.1242,-7.1447,-7.1537,-7.1507,-7.1696,-7.1573,-7.1652,-7.1517,-7.1782,-7.1852,-7.1398,-7.1396,-7.1394,-7.1393,-7.1393,-7.115,-7.1232,-7.1291,-7.1497,-7.1653,-7.1689,-7.1873,-7.1872,-7.1872,-7.1951,-7.2022,-7.202,-7.2017,-7.1985,-7.1986,-7.1987,-7.1988,-7.1989,-7.199,-7.1417,-7.1479,-7.1636,-7.1776,-7.1866,-7.1985,-7.2071,-7.2158,-7.2255,-7.2239,-7.224,-7.2195,-7.1807,-7.1708,-7.2007,-7.2004,-7.2002,-7.2,-7.1999,-7.1866,-7.1764,-7.2007,-7.2098,-7.226,-7.2415,-7.2411,-7.2589,-7.2661,-7.2751,-7.269,-7.2403,-7.2376,-7.2345,-7.2264,-7.2688,-7.2688,-7.2688,-7.2688,-7.2102,-7.2089,-7.2336,-7.2481,-7.2622,-7.2644,-7.2914,-7.2982,-7.3035,-7.3079,-7.3018,-7.291,-7.2878,-7.287,-7.2828,-7.2752,-7.3291,-7.3291,-7.3292,-7.2378,-7.2378,-7.2611,-7.2665,-7.2791,-7.2898,-7.3151,-7.3316,-7.3355,-7.3316,-7.3113,-7.3088,-7.2914,-7.2857,-7.2814,-7.2748,-7.2609,0,0]}]]